This is the latest recevied weather packets stored in our database for station/object EA5FOG-11. If no packets are shown the sender has not sent any weather packets the latest 10 day(s).
| Time | Temp. | Humidity | Pressure | Rain* | Wind** | Luminosity | Snow |
|---|---|---|---|---|---|---|---|
| 1788341247 | 37.78° C | 44% | 963.1 hPa | - | - | - | - |
| 1788340346 | 37.22° C | 45% | 963.1 hPa | - | - | - | - |
| 1788339445 | 35.56° C | 47% | 963 hPa | - | - | - | - |
| 1788338544 | 33.89° C | 49% | 963 hPa | - | - | - | - |
| 1788337643 | 31.67° C | 52% | 962.8 hPa | - | - | - | - |
| 1788336742 | 33.33° C | 51% | 962.8 hPa | - | - | - | - |
| 1788335842 | 30.56° C | 55% | 962.7 hPa | - | - | - | - |
| 1788334941 | 28.89° C | 57% | 962.7 hPa | - | - | - | - |
| 1788334040 | 28.33° C | 57% | 962.7 hPa | - | - | - | - |
| 1788333156 | 27.22° C | 59% | 962.7 hPa | - | - | - | - |
| 1788332256 | 26.11° C | 60% | 962.7 hPa | - | - | - | - |
| 1788331355 | 25.56° C | 61% | 962.7 hPa | - | - | - | - |
| 1788330454 | 25° C | 61% | 962.5 hPa | - | - | - | - |
| 1788329553 | 23.33° C | 64% | 962.6 hPa | - | - | - | - |
| 1788328652 | 22.22° C | 65% | 962.5 hPa | - | - | - | - |
| 1788327752 | 21.67° C | 66% | 962.3 hPa | - | - | - | - |
| 1788326851 | 21.67° C | 66% | 962.2 hPa | - | - | - | - |
| 1788325950 | 21.11° C | 66% | 962.2 hPa | - | - | - | - |
| 1788325049 | 21.67° C | 66% | 962 hPa | - | - | - | - |
| 1788324148 | 21.67° C | 66% | 961.9 hPa | - | - | - | - |
| 1788323248 | 22.22° C | 66% | 962 hPa | - | - | - | - |
| 1788322347 | 22.22° C | 65% | 961.8 hPa | - | - | - | - |
| 1788321446 | 22.22° C | 65% | 962 hPa | - | - | - | - |
| 1788320545 | 22.22° C | 65% | 962.1 hPa | - | - | - | - |
| 1788319644 | 22.22° C | 65% | 962.2 hPa | - | - | - | - |
* Rain since midnight (hover to see other rain measurements)
** Current wind speed in m/s (hover to see current wind gust speed)